TITAN 3C TRANSTAGE DEB, 38691

Orbit data source: Space-Track

TITAN 3C TRANSTAGE DEB, 38691 is space debris in GEO originally from a launch on Thu, 26 Sep 1968 UTC launched from the Air Force Eastern Test Range (AFETR). Debris objects in space refer to the collection of defunct objects orbiting the Earth. Examples of debris include non-operational satellites, rocket bodies, and fragments generated from explosions, collisions, or faulty payload assembly.

Loading next visibility...
Identifier
38691, 1968-081R
Orbit
GEO
Country
Flag of USUS
Related business
Manufacturer
Unknown
Mission
Spacecraft
Bus & Motor
Unknown
Mass
Unknown
Launch date (UTC)
1968-09-26 (57 years ago)
Launch vehicle
Unknown
Launch site
Air Force Eastern Test Range (AFETR)
Object type
Payload
Rocket body
Debris
Shape & HBR
Unknown shape, 1.1 m
Radar Cross Section
Small (<0.1 m²)

Expand to show TLE details & history
Last TLE update: 19 hours ago

TLE from 19 hours ago
0 TITAN 3C TRANSTAGE DEB
1 38691U 68081R   26067.83825333 -.00000350  00000-0  00000-0 0  9995
2 38691   2.2025  46.3020 0197639 262.3795  95.7895  1.00714699 50357
Epoch: 2026-03-08T20:07Z
TLE epoch observation values (Epoch: 2026-03-08T20:07:05.087Z)
Latitude
-0°
Longitude
-61.5724°
Altitude
35,759.398 km
Speed
3.072 km/s
True Right ascension
03h 06m 57s
True Declination
0° 00' 00"
Sunlit
Object was in daylight at epoch
Visualization orbit readout
Latitude
Unknown
Longitude
Unknown
Altitude
Unknown
Speed
Unknown
Apparent Right ascension
Unknown
Apparent Declination
Unknown
Sunlit
N/A
Visualization observer readout
Local Sidereal Time
19:31:23
Azimuth
Unknown
Elevation
Unknown
Doppler factor
Unknown
Orbital elements
Apogee altitude
36,494.873 km
Perigee altitude
34,833.041 km
Semi-major axis
42,042.094 km
Eccentricity
0.01976
Inclination
2.2025°
RAAN
46.302°
Arg. of periapsis
262.3795°
True anomaly
98.03655°
Mean anomaly
95.7895°
Eccentric anomaly
96.91365°
Mean motion
0.25178 °/min
Orbital period
1,429.83 mins
BSTAR
0
Loading maneuver chart data...
Computing Atmospheric mass density...

Documentation

Showing up to 5 results
|